Theta_e
321 321 320 318 318 316 314 313 313 312 312 312 311 311 311 311 312 305 297 304 309 313 315 307 306 303 303 299 303 301 293 289 291 292 294 302 301 305 308 305 305 306 307 309 312
322 322 320 319 318 317 315 313 313 312 312 311 310 310 310 311 305 299 307 311 317 317 305 302 300 301 300 298 297 300 293 291 297 298 297 300 301 302 302 302 303 304 307 309 309
322 322 321 320 318 317 315 314 312 312 311 309 309 310 311 310 294 296 316 316 316 318 305 305 303 300 296 297 294 295 291 296 298 301 302 300 300 303 301 298 301 302 304 307 307
322 322 321 320 319 317 315 313 312 311 310 309 308 309 311 305 293 301 321 317 318 315 303 300 297 294 293 293 296 291 294 296 297 300 300 298 301 298 299 300 304 305 305 303 304
321 320 320 320 319 317 314 313 311 309 308 308 308 309 304 292 291 308 321 318 315 309 301 299 296 293 290 291 294 293 295 297 298 298 298 299 297 298 298 302 303 302 302 303 303
320 319 319 319 318 316 314 312 309 308 308 308 307 308 299 284 298 304 305 315 307 304 300 299 297 297 293 294 293 295 295 296 296 296 296 295 297 295 299 302 300 300 300 301 302
320 319 318 318 317 315 313 310 308 307 307 307 307 305 297 291 300 302 305 309 305 301 298 300 302 300 299 295 298 296 293 295 296 297 296 297 294 293 300 298 298 300 301 301 302
318 319 317 317 316 313 310 308 306 305 304 305 307 304 291 303 305 302 302 300 303 304 305 305 304 300 296 297 294 292 292 288 294 295 296 296 290 296 298 297 298 299 300 300 301
316 319 317 315 313 311 308 306 304 304 305 307 303 300 291 306 301 305 303 297 299 301 302 303 300 296 294 290 288 289 285 287 290 295 294 293 290 296 299 297 297 298 299 298 301
316 318 316 314 311 308 306 304 303 303 305 306 305 294 297 296 301 305 305 301 296 298 297 296 294 290 290 288 282 284 285 287 287 291 291 290 290 294 296 296 296 297 297 303 307
316 318 315 312 309 306 302 300 296 294 299 295 295 295 295 302 305 302 303 298 298 295 290 292 288 285 288 290 290 289 287 286 289 291 288 289 290 293 296 295 296 296 304 305 306
317 316 313 311 308 305 300 295 297 299 291 297 297 298 301 301 294 298 303 296 294 287 291 288 286 290 291 289 288 288 286 285 288 290 289 291 290 294 295 295 296 303 303 304 305
316 314 312 309 306 301 296 296 302 300 288 291 295 295 297 299 294 295 299 296 292 290 289 286 290 292 289 287 286 286 285 286 287 290 292 289 288 290 293 299 303 304 303 304 304
315 311 309 307 299 298 295 300 301 298 282 287 288 293 297 298 292 301 301 297 292 290 290 290 293 290 289 288 289 285 290 290 288 287 284 290 282 288 292 295 300 301 302 304 303
311 308 306 302 295 293 297 299 299 295 275 288 288 299 298 294 294 295 303 294 291 289 291 289 289 289 288 289 291 288 292 289 289 286 286 286 284 287 291 293 297 300 303 302 302
304 302 301 298 297 299 300 300 299 279 274 284 291 291 290 292 293 295 296 297 296 290 290 290 293 292 291 292 292 293 290 290 288 287 281 286 285 284 289 293 296 300 302 300 299
302 301 298 299 292 299 300 295 279 275 286 284 287 291 290 288 289 292 290 289 286 282 283 287 288 292 293 289 291 291 287 280 279 279 278 285 283 287 291 296 298 299 298 297 296
301 300 299 297 299 300 297 287 274 280 280 286 287 290 286 288 289 290 288 284 286 288 284 282 280 288 291 290 288 287 287 281 275 277 280 285 281 287 296 301 299 297 296 295 294
299 293 294 296 299 299 290 278 279 282 285 284 290 285 283 286 286 285 284 282 284 285 284 283 282 290 289 289 290 287 285 289 283 283 280 283 286 292 297 297 296 294 293 292 291
293 291 291 299 298 296 285 280 282 286 286 287 282 284 281 282 284 284 283 285 284 288 289 284 279 286 287 291 288 289 290 284 285 276 275 280 283 285 290 291 292 292 292 291 291
291 287 294 299 299 289 280 282 285 289 288 286 284 282 282 282 284 282 282 285 287 286 288 286 283 281 285 283 280 282 283 286 286 284 279 277 281 291 290 291 290 290 291 290 290
289 282 295 298 285 286 281 285 289 287 290 288 288 286 283 284 282 282 281 284 288 288 283 285 283 278 279 285 287 287 285 285 279 278 281 280 281 293 292 291 291 290 290 290 290
287 288 295 295 280 281 285 285 287 287 287 287 286 287 286 282 280 282 283 287 289 287 284 285 280 274 276 282 284 281 283 283 282 281 276 277 280 293 291 289 289 288 288 289 288
284 280 285 289 288 284 283 284 283 288 287 288 287 288 285 282 284 281 281 285 288 290 291 288 281 277 274 277 281 278 280 281 280 277 276 278 280 284 286 288 288 288 288 287 287
286 281 285 278 282 284 284 285 283 282 287 288 285 285 284 279 280 279 282 283 285 287 286 285 278 280 280 281 281 280 279 279 277 278 275 277 278 282 285 288 288 287 287 285 284
283 284 286 284 286 283 283 284 283 283 285 283 282 283 283 280 281 279 281 281 281 284 283 283 278 279 277 280 280 277 279 279 279 279 279 281 281 288 290 289 286 284 284 283 283
290 290 287 283 283 282 282 284 284 284 285 286 285 283 281 282 285 285 285 285 284 282 281 280 278 275 272 278 277 273 278 279 281 284 283 279 284 289 285 284 283 283 283 282 282
Wind_Speed
16 14 14 11 10 10 10 7 7 8 7 10 11 12 15 16 16 2 7 6 4 7 7 7 3 5 3 4 3 3 4 7 8 8 4 2 2 1 2 7 3 2 11 12 14
18 17 17 14 13 11 9 7 6 7 9 11 12 14 15 15 5 8 10 6 8 10 5 7 6 6 3 3 4 5 5 10 7 7 4 4 3 7 6 9 11 16 8 10 11
20 19 18 16 15 12 9 7 5 6 7 9 12 14 16 13 5 5 4 10 12 6 3 2 5 3 4 3 6 6 8 6 5 9 6 5 7 5 10 14 11 13 15 14 11
21 20 19 18 16 12 9 7 5 4 6 8 10 13 16 5 7 3 4 13 11 7 7 6 4 5 4 8 6 6 7 9 4 9 8 11 11 14 11 17 15 14 14 9 13
22 22 21 19 17 14 10 7 4 3 5 7 8 10 5 3 11 4 9 11 8 8 8 8 7 6 6 5 5 9 6 7 9 8 9 9 14 14 12 17 13 9 10 11 9
24 23 21 20 18 14 11 9 6 1 4 7 8 7 3 8 5 2 5 8 7 7 8 9 9 8 4 5 6 5 8 9 7 11 6 8 8 7 12 10 9 5 8 8 9
24 23 21 19 18 16 13 9 4 1 5 7 5 2 8 17 2 2 3 4 5 8 7 7 6 7 6 3 5 4 7 6 8 7 8 5 8 9 14 5 6 13 10 10 8
26 22 20 19 17 15 13 9 6 5 6 8 4 2 11 10 10 15 11 9 5 10 3 4 5 4 4 2 1 3 1 4 1 6 1 8 6 9 3 4 12 12 11 9 13
24 23 21 20 21 19 16 11 5 2 8 7 3 6 14 6 7 12 14 12 12 6 3 2 5 5 4 5 3 3 7 5 4 6 4 6 2 8 9 10 12 11 11 10 8
23 22 20 23 22 21 16 10 2 5 6 3 3 1 7 5 4 4 7 13 7 11 5 7 6 6 6 9 11 7 6 5 4 3 3 8 13 15 14 10 12 10 6 4 9
21 20 22 24 25 24 15 6 4 4 8 14 12 7 4 1 4 3 2 10 6 7 13 6 9 16 17 14 8 3 3 7 7 9 4 10 10 13 14 7 11 3 1 4 7
18 20 25 27 26 22 9 4 2 2 7 20 19 19 14 7 1 5 12 6 8 14 15 6 19 14 11 11 10 9 9 11 10 10 7 10 13 14 12 6 3 4 1 4 8
19 24 26 25 24 11 7 7 5 0 3 8 12 15 15 15 11 15 13 6 11 10 16 16 3 17 16 11 11 8 10 7 9 4 6 6 6 2 3 5 6 5 2 3 7
19 26 27 26 10 8 4 6 3 3 3 7 9 10 10 9 13 20 10 10 1 14 8 10 11 10 14 14 11 13 13 14 9 3 4 3 6 3 4 2 5 1 4 7 11
24 27 26 6 12 5 5 6 5 1 3 2 5 1 9 16 1 12 22 4 19 11 8 10 6 13 13 12 13 8 9 11 7 6 2 3 6 0 3 4 4 3 6 9 11
29 25 16 7 4 5 8 11 4 6 8 4 5 7 9 16 5 5 18 11 6 7 6 11 3 6 7 9 17 5 6 4 3 3 6 12 11 4 4 4 2 2 7 10 14
22 15 8 3 6 2 5 5 5 5 2 2 4 8 9 10 12 9 17 11 7 10 10 3 11 2 1 4 6 11 6 4 4 5 5 4 8 8 7 4 2 4 9 12 14
19 13 7 4 2 3 6 3 4 4 6 3 4 5 7 9 6 11 16 8 4 2 5 8 5 1 3 1 4 9 7 5 6 5 3 3 6 2 7 11 11 9 9 11 15
15 3 4 4 5 2 3 3 5 5 6 8 4 4 3 5 4 7 4 3 3 2 3 4 3 3 7 4 2 4 5 1 2 1 3 6 3 6 11 9 8 9 10 12 14
3 2 1 4 7 2 2 3 3 1 3 3 3 5 3 1 3 4 3 3 4 6 1 2 5 3 3 1 5 2 3 3 1 5 7 4 4 2 9 8 8 11 11 11 12
3 2 1 7 4 1 3 4 3 4 3 5 5 1 4 4 3 5 3 5 6 3 3 2 2 1 1 5 2 3 2 4 2 1 3 4 3 2 2 4 4 6 7 9 12
2 3 1 2 2 2 2 5 3 2 3 7 5 4 1 5 4 6 5 3 2 1 4 1 3 3 3 4 3 1 2 3 2 4 1 3 3 3 5 3 3 4 6 8 10
2 3 3 1 2 3 4 5 2 2 4 1 3 3 2 2 4 5 5 2 3 3 3 2 1 4 2 1 2 5 4 5 4 3 4 4 1 7 6 3 4 4 5 8 11
3 4 1 1 2 2 4 5 4 2 3 3 4 5 1 2 6 5 5 4 4 5 10 3 2 1 4 3 3 5 4 3 3 3 3 10 15 15 15 8 3 5 6 7 11
2 4 5 6 6 7 2 8 7 5 2 2 1 3 4 2 3 4 3 3 7 5 4 3 3 1 1 3 2 3 8 7 8 8 8 7 16 19 15 13 5 2 5 9 12
3 3 2 4 6 11 6 6 10 4 2 2 3 1 3 4 1 4 5 2 2 4 3 3 4 2 3 6 6 9 12 10 9 10 13 16 21 19 10 8 7 6 5 8 10
1 1 1 1 4 5 5 4 5 7 3 4 9 7 9 4 4 4 4 5 4 4 3 2 4 3 2 1 3 8 8 9 2 5 10 13 16 12 5 8 5 6 5 6 9
Wind_Direction
237 234 237 235 241 251 265 274 285 299 311 318 319 318 318 318 317 274 249 221 205 236 161 131 108 115 96 115 122 151 191 225 231 196 243 206 269 266 321 286 306 288 304 287 307
237 233 237 235 232 227 237 255 275 297 313 322 322 321 317 322 300 250 247 207 203 149 140 155 144 137 102 140 163 194 213 223 204 206 231 275 261 302 289 288 290 293 283 278 295
235 233 234 233 228 220 218 224 250 285 308 323 323 325 320 324 297 237 198 193 189 183 134 136 118 129 155 167 186 178 235 209 214 227 243 255 278 278 278 279 263 285 297 303 305
236 232 227 226 225 216 213 206 232 268 310 323 326 330 319 299 281 182 125 156 170 166 133 130 132 152 192 204 188 227 232 228 224 234 246 255 275 270 257 266 264 269 283 287 297
232 227 226 222 219 210 195 192 195 283 319 327 332 334 337 246 253 136 132 153 149 157 175 161 164 159 201 218 185 228 242 232 233 247 251 257 253 257 263 261 273 275 282 283 286
239 227 222 220 213 200 182 173 172 174 335 328 335 338 276 233 251 87 193 159 189 184 181 168 190 192 200 215 218 201 221 252 253 247 237 230 251 173 252 261 279 298 285 287 292
238 226 219 214 206 187 179 163 124 43 345 322 331 297 253 248 242 312 347 214 197 195 176 206 176 175 167 223 219 253 271 271 231 235 235 178 240 224 252 299 299 303 301 298 300
252 225 210 204 191 173 157 132 101 40 323 322 299 161 257 252 260 259 246 250 240 215 218 183 171 210 185 263 312 254 230 255 232 164 209 188 238 277 288 153 311 307 297 311 320
255 218 200 192 173 157 146 130 109 273 272 266 244 142 265 274 250 249 211 223 201 214 230 220 157 196 151 185 256 220 254 220 285 200 172 202 198 264 284 292 288 283 300 320 325
242 215 195 177 161 144 130 111 105 258 250 219 264 319 246 240 226 231 193 203 178 186 200 186 175 189 171 186 217 211 223 227 240 163 158 271 263 264 269 261 263 284 309 335 344
229 198 176 164 153 141 120 119 136 208 225 197 204 213 254 287 246 229 154 169 196 189 200 198 197 205 200 210 212 180 224 264 260 257 283 253 260 268 272 256 269 282 33 15 353
197 179 166 160 153 146 125 162 180 39 266 228 250 250 264 15 45 323 139 181 200 205 194 197 234 209 197 186 202 223 244 259 274 275 213 276 287 267 259 253 200 151 71 6 352
175 162 158 151 140 130 129 152 103 316 289 257 208 235 227 198 228 214 179 184 205 202 194 208 247 198 183 182 184 209 216 230 240 318 254 285 274 209 111 138 151 176 78 40 355
164 151 142 138 109 130 133 188 182 17 2 259 211 245 189 151 237 220 209 170 243 213 190 233 221 151 189 205 190 236 209 235 242 242 254 347 298 261 171 162 200 139 51 8 3
133 127 125 31 126 147 119 138 132 230 274 159 165 275 167 180 302 206 183 196 194 171 168 218 212 206 215 202 181 219 201 203 213 214 231 205 266 283 251 192 167 79 31 20 4
104 103 101 72 42 93 96 106 107 69 235 301 153 153 146 211 270 88 178 225 214 175 221 221 177 177 211 211 189 198 173 146 91 159 245 233 216 178 191 177 187 36 44 16 0
101 93 74 81 117 183 112 138 87 192 4 219 220 176 190 185 226 163 169 172 177 185 202 182 222 221 196 177 163 193 154 192 195 195 245 176 194 262 264 197 99 68 29 13 4
108 104 121 100 182 186 131 96 171 200 267 332 310 164 193 150 207 155 157 172 58 103 159 200 173 359 336 250 176 173 189 195 213 193 155 154 225 207 50 83 87 65 40 16 3
112 53 124 178 160 175 160 163 182 202 294 327 33 252 204 171 123 113 98 101 54 35 142 153 106 330 53 42 341 155 184 92 170 137 225 216 217 113 65 88 51 35 25 12 359
97 120 184 149 139 149 176 169 229 286 312 273 84 7 293 240 131 106 113 16 97 18 315 121 118 355 324 325 53 57 116 150 43 232 245 198 230 236 10 15 19 14 7 357 350
73 104 222 126 156 107 207 208 335 333 342 4 100 175 294 327 77 58 46 51 10 354 52 93 43 99 263 25 0 358 94 61 64 245 257 265 193 121 54 35 22 7 354 351 351
155 121 69 142 143 170 188 179 247 301 275 57 84 281 350 346 60 128 133 75 354 255 52 12 92 106 63 334 224 39 79 71 209 180 319 296 218 115 133 90 26 26 4 356 359
113 81 347 62 169 186 258 197 220 221 69 208 74 253 357 55 111 117 119 89 154 90 135 186 74 111 104 106 51 81 67 87 91 98 219 244 187 147 141 65 16 2 356 357 1
114 125 90 172 287 256 207 188 161 76 98 138 168 266 162 67 32 121 104 50 23 82 62 86 117 227 191 93 107 156 194 185 130 162 240 241 281 274 294 317 340 355 350 16 14
154 200 170 174 237 230 269 184 172 163 156 174 79 233 172 126 103 106 98 93 42 15 49 64 120 22 32 131 169 228 248 218 206 222 235 285 279 279 283 301 101 52 7 26 21
159 166 164 171 176 191 238 185 172 120 145 150 191 141 120 100 28 151 123 103 117 44 70 13 114 107 268 251 240 253 259 269 256 262 265 277 279 281 267 133 95 67 31 31 27
213 263 153 141 151 158 198 148 152 125 34 146 140 107 89 104 87 81 67 86 115 122 102 80 134 158 190 101 288 263 263 222 194 249 276 282 308 316 150 109 88 84 43 37 28